Wind from 150 at 13 knots

Air temperature 7.0° C
Visibility: greater than 34.8 NM
Dewpoint -7.0° C

Last reported at 2014-Apr-19 20:00 UTC.
Time now 2014-Apr-19 22:08 UTC

Location: N 60°43' W 135°04'.
View on Google Maps.

See reports from other nearby stations

Tides Stations Pressure Air Temp Water Temp Dewpoint Dewpoint depression Visibility Wind Speed Wind Dir Waves Ship positions

  
sailing weather and tide predictions

WHITEHORSE, YK weather

date/time (UTC)wind fromknots sea level pressurealtimeterstation pressurevisibilityair tempwater tempwave heightnotes
2014-Apr-19 21:00 180 14 gusting 19 34.8 8.0
2014-Apr-19 20:00 150 13 34.8 7.0
2014-Apr-19 19:00 360 4 34.8 4.0
2014-Apr-19 18:00 34.8 2.0
2014-Apr-19 17:00 34.8-0.0
2014-Apr-19 16:00 120 3 34.8-2.0
2014-Apr-19 15:00 170 2 34.8-4.0
2014-Apr-19 14:00 220 3 34.8-5.0
2014-Apr-19 13:00 240 2 34.8-4.0
2014-Apr-19 12:00 220 3 34.8-4.0
2014-Apr-19 11:00 240 6 34.8-3.0
2014-Apr-19 10:00 30.4-2.0
2014-Apr-19 09:00 170 7 34.8-2.0
2014-Apr-19 08:00 210 7 34.8-1.0
2014-Apr-19 07:00 150 7 34.8 1.0
2014-Apr-19 06:00 180 7 34.8 1.0
2014-Apr-19 05:00 140 8 34.8 3.0
2014-Apr-19 04:00 210 7 34.8 5.0
2014-Apr-19 03:43 140 5 34.8 5.0
2014-Apr-19 03:00 150 11 34.8 6.0
2014-Apr-19 02:00 210 9 gusting 18 34.8 7.0
2014-Apr-19 01:00 210 15 34.8 7.0
2014-Apr-19 00:00 240 13 34.8 7.0
2014-Apr-18 23:00 250 15 gusting 20 34.8 8.0
2014-Apr-18 22:48 220 8 gusting 18 34.8 7.0
2014-Apr-18 22:00 180 10 gusting 17 34.8 7.0
2014-Apr-18 21:00 150 16 34.8 7.0
2014-Apr-18 20:00 150 11 gusting 18 34.8 6.0
2014-Apr-18 19:00 140 13 34.8 5.0
2014-Apr-18 18:00 150 9 gusting 17 34.8 4.0
2014-Apr-18 17:00 160 10 gusting 18 34.8 3.0
2014-Apr-18 16:00 170 12 34.8 2.0
2014-Apr-18 15:00 170 11 34.8 1.0
2014-Apr-18 14:00 170 11 34.8 1.0
2014-Apr-18 13:00 180 11 26.1-0.0
2014-Apr-18 12:00 170 12 17.4 1.0
2014-Apr-18 11:00 170 13 17.4 1.0
2014-Apr-18 10:00 170 15 17.4 1.0
2014-Apr-18 09:00 160 12 17.4 2.0
2014-Apr-18 08:00 160 10 17.4 2.0
2014-Apr-18 07:00 150 10 17.4 2.0
2014-Apr-18 06:00 170 9 17.4 2.0
2014-Apr-18 05:00 140 12 gusting 17 17.4 3.0
2014-Apr-18 04:00 170 10 17.4 3.0
2014-Apr-18 03:00 170 12 gusting 17 17.4 4.0
2014-Apr-18 02:00 160 10 gusting 18 21.7 5.0
2014-Apr-18 01:00 140 5 26.1 5.0
2014-Apr-18 00:00 150 11 26.1 5.0
2014-Apr-17 23:00 150 11 gusting 17 26.1 5.0
2014-Apr-17 22:00 140 9 26.1 6.0